GEFSNE_500_meanwind_054.txt.gz
Wind_Speed
43 42 40 39 39 41 46 53 59 64 68 70 73 77 83 89 94 96 97 95 92 89 85 83 81 80 77 76 73 69 64 59 57 56 54 53 52 51
42 41 40 39 39 40 43 49 56 61 65 69 70 73 78 85 90 94 97 95 93 90 87 84 81 79 76 75 74 71 69 63 57 55 54 53 51 52
38 39 39 38 38 39 41 45 52 58 62 66 68 70 73 80 86 91 94 94 92 91 88 84 82 80 79 75 74 72 71 68 63 58 54 52 50 49
31 35 36 37 37 37 39 42 48 54 59 63 66 68 70 75 81 88 92 94 93 92 89 85 83 80 76 75 74 73 71 69 66 61 57 54 52 49
22 28 31 33 35 36 38 40 45 51 56 60 64 66 67 70 76 83 89 92 93 91 90 87 84 82 77 74 73 73 72 70 67 63 60 56 54 52
13 20 25 28 31 33 36 38 42 48 53 57 61 64 65 65 69 76 83 90 91 90 89 88 86 84 79 75 72 71 70 69 68 65 64 59 54 51
9 15 19 23 27 31 33 35 38 44 49 54 58 62 63 63 65 69 76 84 89 90 87 86 85 85 82 78 73 70 69 68 67 67 64 62 57 53
7 12 15 19 23 27 30 33 36 40 45 51 55 60 61 62 62 64 70 77 82 87 86 84 84 85 84 79 75 72 70 68 67 67 66 62 60 57
6 9 11 15 19 23 26 30 33 36 42 47 52 57 59 60 59 60 65 71 77 82 84 82 82 83 83 79 76 74 73 70 68 67 66 63 61 58
4 4 7 11 15 20 23 27 30 33 38 44 49 54 56 57 57 58 61 66 71 77 80 81 82 82 81 80 78 75 73 72 70 67 66 65 63 60
4 1 5 9 12 17 21 24 27 30 34 40 45 50 54 55 55 56 58 61 65 71 76 78 80 82 83 82 80 76 74 72 71 68 66 65 64 62
6 2 3 6 9 13 18 22 25 28 32 37 42 47 51 53 54 54 56 59 63 66 70 73 75 79 81 82 80 78 76 73 71 69 67 65 64 62
10 5 3 5 8 11 15 19 23 26 30 35 40 44 48 51 52 53 55 58 61 64 66 68 70 74 77 79 79 79 77 74 72 70 69 67 65 63
15 9 4 3 7 10 13 17 21 24 28 33 37 41 45 48 50 50 52 56 59 63 66 67 68 69 72 75 77 78 77 76 74 72 70 68 67 65
22 13 7 3 5 8 11 15 19 23 27 31 35 38 42 44 45 46 48 52 56 62 66 66 67 66 67 71 74 76 76 76 74 72 70 68 66 65
30 21 12 6 4 7 10 14 18 22 26 30 33 36 39 41 42 43 45 48 53 58 64 66 67 66 64 66 69 73 74 74 73 72 70 68 66 65
34 28 19 11 5 4 8 13 17 21 25 29 32 34 37 39 40 40 41 43 48 55 61 64 66 66 63 63 66 69 71 71 70 69 69 68 67 65
38 32 25 17 10 3 5 11 16 20 24 28 31 33 35 36 37 38 38 39 43 50 57 60 62 64 63 62 63 64 67 68 69 68 68 66 65 64
40 36 29 23 15 7 2 7 14 19 24 27 30 32 33 35 36 37 37 37 39 45 51 55 57 60 61 61 60 61 62 65 66 67 66 66 64 63
41 38 33 26 20 13 4 3 10 17 23 27 30 32 33 34 35 36 36 36 38 41 46 51 54 56 57 57 57 57 59 60 62 62 63 63 63 62
42 39 36 30 23 17 9 1 7 14 20 25 29 31 33 34 34 35 36 36 38 40 44 47 50 53 54 55 55 55 55 55 56 58 59 58 59 59
42 40 37 33 27 20 13 6 2 11 18 23 28 31 33 34 34 35 35 36 38 41 43 46 48 51 53 53 53 53 53 53 53 53 54 55 54 55
42 41 38 35 30 23 16 8 1 6 15 21 26 30 33 35 35 35 35 36 39 41 43 46 48 50 52 53 53 52 52 52 51 51 51 52 52 52

GEFSNE_500_meanwind_060.txt.gz
Wind_Speed
23 21 27 33 38 42 43 44 45 47 50 55 62 70 79 87 95 102 108 111 112 111 108 103 100 96 91 87 83 81 76 72 69 67 65 63 62 62
19 14 17 24 31 36 40 41 43 45 47 52 57 64 72 79 86 94 101 106 109 110 108 105 101 98 94 90 85 82 79 76 70 68 66 63 62 61
16 8 9 16 23 29 35 38 40 42 44 49 54 59 66 72 79 87 94 101 106 108 108 107 104 100 97 93 88 83 82 78 72 69 67 66 63 61
14 6 1 8 15 22 28 33 37 40 41 45 50 55 61 67 74 80 87 94 100 104 106 106 105 102 99 96 92 87 82 78 75 69 65 66 65 62
13 8 3 4 9 16 22 27 32 37 39 42 47 52 58 62 68 75 81 88 94 101 103 105 105 103 100 97 95 91 86 82 77 72 65 62 63 60
12 7 3 2 7 13 18 22 27 33 36 39 44 50 55 59 63 69 75 81 88 95 100 102 103 101 100 98 95 94 89 85 80 75 68 62 58 56
12 7 3 1 6 10 15 18 23 29 33 36 41 46 52 56 60 65 70 76 82 89 95 99 99 99 99 97 95 94 92 88 83 78 73 66 59 55
13 8 4 2 5 9 13 17 21 25 30 33 38 43 49 53 57 62 67 73 78 84 89 93 94 96 97 95 94 93 92 89 85 79 76 71 65 58
16 10 6 4 4 8 12 16 19 23 27 31 35 41 46 50 54 58 63 70 75 80 84 89 92 93 94 93 92 91 91 88 86 82 77 73 68 62
19 13 8 6 5 7 11 15 18 21 25 29 34 39 44 49 52 56 60 66 72 76 80 83 89 91 91 91 90 88 88 87 84 81 78 74 70 65
22 16 11 7 7 7 10 13 17 20 23 27 32 37 43 47 51 54 57 62 68 73 76 79 83 88 87 86 85 84 84 83 83 80 78 75 71 67
28 20 14 9 7 8 9 12 16 19 22 26 30 35 41 45 49 53 55 58 63 69 74 76 77 82 83 83 83 82 81 81 80 79 77 74 71 68
33 26 19 13 8 7 9 12 15 18 21 25 29 34 39 44 48 52 54 56 59 64 69 73 75 78 79 79 81 79 80 79 78 77 74 72 70 66
36 30 23 16 10 6 7 11 14 17 20 24 28 33 38 43 47 50 53 54 56 59 65 70 73 75 75 75 75 75 76 77 77 75 73 71 69 66
38 33 27 20 13 7 5 9 13 16 20 23 27 32 37 42 45 49 51 53 54 55 58 63 69 73 74 73 72 71 73 74 74 74 73 70 68 66
39 35 30 24 17 10 5 6 11 15 18 22 26 31 36 40 44 47 50 51 53 53 55 58 62 69 72 73 73 69 69 70 72 73 72 70 67 65
40 37 32 27 20 13 7 4 8 13 17 21 25 30 34 39 43 46 48 50 51 52 53 55 57 62 67 71 72 70 67 68 69 70 70 69 68 66
40 37 34 29 23 17 10 3 5 10 15 20 24 29 33 38 41 45 47 49 50 51 52 53 54 57 61 66 71 69 67 66 66 67 68 68 67 66
40 37 34 30 25 19 13 5 2 8 14 19 24 28 32 36 40 44 47 48 50 50 50 51 53 54 55 58 64 68 67 66 65 65 66 66 65 64
40 37 34 31 26 21 15 7 1 6 12 17 22 27 31 35 39 43 46 48 49 49 49 50 51 51 52 54 58 62 65 65 64 64 65 66 65 63
40 38 35 31 27 22 16 9 2 4 10 16 21 26 30 34 37 41 44 46 47 48 48 49 51 51 50 52 54 57 60 62 62 63 63 63 63 63
40 38 35 31 26 22 17 11 4 4 9 15 20 25 29 32 36 40 42 44 46 47 48 49 50 51 50 50 51 53 55 58 60 60 62 61 61 61
40 38 36 31 27 22 17 11 5 3 8 13 18 23 28 32 35 38 41 42 44 45 46 47 49 50 50 49 50 51 52 55 56 58 59 59 59 59

GEFSNE_500_meanwind_066.txt.gz
Wind_Speed
41 37 33 28 23 17 11 13 20 29 39 48 53 57 61 67 75 84 95 105 114 119 119 117 115 112 107 103 99 94 90 87 83 79 74 71 68 65
40 34 30 26 20 15 9 8 13 21 31 41 47 52 55 59 66 75 85 96 106 115 118 118 117 114 110 106 102 97 93 89 85 81 77 73 70 67
38 32 28 24 19 14 9 7 10 17 24 33 40 45 49 52 58 67 76 87 97 108 115 118 117 115 113 109 104 100 96 91 87 83 78 74 71 69
37 31 26 23 19 14 10 8 9 13 20 27 33 39 43 46 52 59 68 78 88 99 109 115 117 116 114 111 107 103 98 94 90 86 80 75 71 69
38 31 26 23 19 15 12 9 9 12 17 22 28 33 38 41 46 52 60 69 79 90 102 111 116 116 115 113 109 105 101 96 91 87 83 78 74 70
39 33 27 23 19 15 12 10 9 11 15 19 24 29 33 36 41 46 53 62 71 82 93 104 111 115 115 113 109 106 102 98 94 90 85 80 75 71
40 35 29 24 20 16 13 10 10 11 14 17 21 25 29 32 36 41 47 55 63 74 85 96 105 111 113 113 111 107 104 100 96 93 88 83 77 73
41 36 31 25 21 18 15 12 11 11 13 16 19 23 26 29 33 38 42 49 56 67 77 88 97 105 110 112 111 108 105 102 98 95 90 85 81 75
41 37 32 27 22 19 16 13 12 12 13 15 18 21 24 27 31 34 39 45 52 61 70 79 91 98 105 109 109 108 106 103 100 96 92 86 82 77
42 39 34 29 24 19 16 14 12 12 13 15 17 20 22 25 28 32 37 42 48 55 64 72 83 90 98 104 106 106 106 103 100 96 93 89 84 79
43 40 36 31 25 21 17 14 12 12 13 15 17 19 22 24 27 31 36 41 46 53 60 66 75 83 91 98 103 105 104 102 99 96 92 90 86 82
44 42 38 33 27 22 18 14 11 11 12 14 17 19 22 23 26 29 34 39 44 51 57 63 70 78 83 90 97 101 102 101 99 96 93 90 86 82
44 42 39 34 29 23 18 14 11 10 11 13 16 19 21 23 25 29 34 39 43 49 55 61 67 73 78 83 89 95 98 98 97 94 92 90 86 82
45 43 40 35 30 24 19 14 10 9 10 12 14 17 21 23 26 30 34 38 42 47 52 58 64 69 74 77 83 88 92 93 93 92 90 88 86 83
45 43 41 37 31 25 20 15 10 8 9 11 13 16 19 22 25 30 34 38 42 46 50 55 61 66 71 74 78 83 87 89 88 89 87 85 84 82
45 42 40 37 32 26 21 15 11 7 8 11 13 15 19 22 25 30 35 39 42 45 49 54 59 65 69 71 74 78 81 82 83 84 83 81 81 80
45 42 39 36 32 27 22 16 11 7 6 9 12 15 19 21 25 31 35 38 41 44 48 53 57 62 67 70 71 73 76 77 80 80 79 76 77 77
46 43 38 34 32 28 22 17 12 7 4 8 12 15 18 22 25 30 35 38 41 43 46 50 54 59 63 66 68 68 70 72 74 76 76 74 74 74
46 43 38 34 31 28 23 18 13 7 2 6 11 15 19 22 26 30 35 38 41 44 45 48 52 56 60 63 65 66 67 69 71 72 73 73 72 71
46 43 38 33 30 28 24 18 13 7 0 6 11 15 19 22 26 31 35 38 41 43 45 46 50 54 57 60 62 64 65 66 68 70 71 70 70 69
45 43 39 33 29 27 24 19 13 6 1 6 11 15 19 22 27 31 35 39 42 43 44 46 49 52 55 58 59 61 62 64 65 65 66 67 68 68
45 43 39 34 29 26 23 19 13 7 2 6 11 15 19 22 26 31 35 39 42 43 44 45 48 51 54 55 56 57 58 60 63 64 63 62 62 63
44 42 39 35 30 26 23 19 14 7 2 7 11 15 19 22 26 31 35 39 42 43 44 45 47 50 52 54 55 56 57 58 60 61 61 60 59 59

GEFSNE_500_meanwind_072.txt.gz
Wind_Speed
53 52 50 48 45 41 37 34 31 26 20 18 19 24 32 46 59 70 78 85 91 100 109 117 121 122 122 120 117 113 110 106 102 98 94 87 80 74
52 51 49 47 44 40 35 32 30 27 22 18 18 21 26 36 49 60 69 78 84 93 102 111 118 121 122 121 119 116 112 108 104 101 96 91 85 78
52 50 49 46 43 39 34 31 28 26 23 19 18 19 23 30 40 52 61 70 78 85 95 105 114 120 121 121 120 118 114 110 107 103 99 95 89 81
51 49 48 46 43 39 34 30 27 25 23 19 17 17 21 26 33 44 54 63 71 78 87 97 108 117 120 121 120 119 116 113 109 105 101 97 92 86
51 49 47 45 42 39 35 30 27 24 22 19 17 17 19 23 29 37 47 55 63 71 80 90 101 112 119 121 121 120 118 114 110 106 104 100 95 90
51 49 48 45 42 38 34 30 26 24 21 19 17 17 18 21 27 33 41 49 57 65 73 82 94 105 115 119 120 120 118 116 113 109 106 102 97 92
51 49 47 46 42 38 34 30 27 24 21 19 17 16 17 20 25 31 37 44 51 58 66 76 86 98 109 116 119 120 119 117 114 110 107 104 99 95
51 49 47 45 42 38 34 31 27 24 21 18 17 16 17 20 23 28 34 39 45 53 60 69 79 90 102 112 118 119 119 118 115 112 108 105 101 97
52 50 48 45 41 37 33 30 27 23 20 18 17 17 17 19 22 27 31 36 41 48 54 62 73 82 95 106 114 118 118 118 116 113 109 105 102 98
52 51 48 45 41 37 33 29 27 23 20 17 17 16 16 18 21 25 29 33 38 43 49 56 66 76 87 99 110 115 117 117 116 113 110 106 102 99
51 51 49 45 41 36 33 30 27 23 20 16 15 15 15 17 20 24 27 31 35 39 45 51 60 69 80 91 103 112 115 116 115 114 111 107 103 100
51 50 49 45 41 36 32 29 26 22 19 15 14 14 15 17 20 23 26 29 33 37 42 48 55 64 72 84 95 107 112 114 115 114 111 108 104 100
51 50 48 44 40 35 32 29 25 21 17 14 13 13 14 16 19 22 25 28 31 35 40 46 52 59 68 78 89 100 108 112 113 113 111 108 105 101
50 49 47 43 39 35 32 29 25 20 16 13 11 12 13 15 18 21 24 27 30 34 39 44 50 56 63 72 82 93 103 109 111 111 110 108 105 101
50 49 47 43 39 35 31 28 24 20 16 12 10 11 12 15 18 21 24 27 29 33 38 43 48 53 60 67 76 87 96 104 109 109 109 108 105 102
49 47 46 43 39 35 31 27 24 20 15 11 9 10 12 14 16 20 23 26 29 33 38 42 46 51 56 63 71 80 91 98 105 107 107 106 104 100
47 46 44 42 39 34 31 27 24 20 15 10 8 8 11 13 15 18 22 24 28 32 37 41 45 49 54 60 67 75 84 92 99 103 104 103 102 99
46 45 43 42 38 34 30 27 23 19 14 9 6 7 10 13 14 17 21 24 28 32 37 41 44 48 52 57 65 71 79 87 93 98 100 100 99 97
45 44 43 41 38 34 30 26 23 18 13 8 4 5 9 12 14 16 20 24 28 32 37 41 43 47 50 54 60 67 73 79 86 92 96 97 96 95
44 43 42 40 37 34 30 26 22 17 12 7 2 4 8 11 14 17 20 23 27 32 36 40 43 46 49 53 58 64 69 73 80 86 91 93 92 90
43 42 42 39 36 33 30 26 21 16 10 5 1 4 9 12 14 17 19 23 28 31 35 39 41 44 47 53 57 61 65 70 75 79 84 88 89 88
42 42 41 39 35 32 29 25 20 15 9 4 1 5 10 13 15 18 21 25 29 32 36 39 41 42 45 51 55 59 64 66 69 73 77 82 85 85
41 40 39 37 34 30 28 24 19 13 8 3 2 6 10 13 16 19 22 26 30 33 36 38 40 42 45 50 54 57 62 66 67 69 74 77 78 79

GEFSNE_500_meanwind_078.txt.gz
Wind_Speed
70 69 67 66 66 65 64 63 62 56 48 44 42 40 39 36 33 31 30 35 47 61 73 82 89 96 103 111 118 123 123 122 119 116 112 107 102 95
69 67 66 65 64 63 62 61 60 58 51 44 41 38 37 35 33 31 30 32 42 55 68 77 84 92 99 107 115 121 124 123 120 117 114 110 105 98
68 66 65 64 63 62 61 59 57 56 52 45 42 38 36 35 33 31 29 30 37 49 63 73 80 88 95 103 111 119 124 123 121 118 115 112 107 100
67 65 64 63 62 61 60 57 55 54 52 46 41 39 36 34 32 30 28 28 32 43 57 69 77 84 91 99 107 116 122 124 121 119 116 113 109 104
66 64 63 62 60 60 59 56 54 52 50 46 41 39 36 34 32 29 27 26 29 37 51 63 73 79 87 94 104 113 120 123 122 120 117 115 112 106
64 63 62 61 60 59 57 55 52 50 48 45 42 38 36 33 31 28 26 25 27 33 45 57 68 76 83 91 99 109 117 122 122 121 119 116 114 109
63 62 61 61 59 58 57 54 51 49 47 44 41 38 35 32 29 27 25 24 25 29 39 52 63 72 79 87 94 104 114 120 122 122 120 118 116 112
62 61 60 59 58 57 56 53 50 48 46 44 41 38 35 31 28 26 24 24 24 28 36 46 58 67 75 83 90 99 109 117 121 122 121 119 117 114
62 61 59 58 57 55 54 51 48 46 44 43 40 36 33 30 27 25 23 22 23 26 33 41 53 62 71 79 86 95 105 114 119 122 122 120 118 115
62 61 59 57 56 54 53 50 47 44 42 41 38 35 31 28 25 23 22 21 22 25 30 37 48 57 67 75 82 90 100 110 117 121 121 120 118 116
61 60 59 56 54 53 52 49 45 42 40 38 37 34 30 26 23 22 20 20 20 24 28 35 43 52 62 70 78 86 95 106 114 119 121 121 119 117
59 58 57 55 53 51 50 48 44 41 39 37 35 32 28 24 21 19 18 18 18 21 26 32 40 48 57 66 74 82 91 101 110 117 120 120 120 118
58 57 55 54 51 49 49 47 44 40 38 36 33 29 25 22 19 18 16 16 17 19 24 30 38 45 53 61 70 78 86 96 106 114 118 119 120 119
57 56 54 52 50 47 46 45 43 40 37 34 31 28 24 21 18 16 15 15 17 19 22 28 35 43 50 57 66 74 82 91 101 110 116 118 118 118
56 54 52 51 48 46 45 44 42 38 35 32 29 27 23 19 16 15 14 14 16 19 21 26 33 40 47 54 61 70 78 87 97 106 113 116 118 118
54 52 51 49 47 45 44 43 41 37 33 30 28 25 21 17 14 13 12 13 15 18 20 24 30 36 44 51 58 66 74 82 92 102 109 114 117 117
52 51 49 48 46 45 43 42 39 35 32 29 26 23 19 15 13 11 11 12 14 17 19 23 27 34 40 47 54 62 70 78 87 97 105 111 115 115
51 49 48 47 45 44 42 40 37 34 30 27 24 21 18 14 12 11 10 12 14 16 19 22 27 32 37 43 50 58 66 74 83 92 101 108 111 113
49 48 47 46 44 43 40 38 35 32 29 25 22 19 16 13 10 9 9 10 12 15 18 20 25 30 35 40 47 56 62 70 79 88 97 104 108 110
48 47 46 44 43 41 38 35 33 30 26 23 19 17 14 10 7 6 6 8 11 13 16 19 23 28 33 39 45 52 60 67 75 83 92 100 104 106
47 45 44 42 40 38 36 33 30 27 23 20 17 14 12 8 5 3 4 7 10 13 15 18 22 27 32 37 42 48 56 63 71 79 87 95 101 104
45 43 42 40 38 36 33 31 28 24 20 17 15 13 10 6 3 1 4 6 10 13 15 18 22 25 30 34 39 46 54 60 67 75 83 91 96 100
42 40 39 37 35 33 31 28 25 22 18 16 14 12 9 6 2 1 4 7 10 13 15 18 20 24 29 34 38 44 52 59 65 71 78 85 90 93